SCP
0 0 0 0 0 0 0 0 0 0 0 0 0 0 0 0 0 0 0 0 0 0 -0 -0 -0 0 0 -0 -0 -0 0 0 0 0 0 0 0 0 0 0 0 0 0 0
0 0 0 0 0 0 0 0 0 0 0 0 0 0 0 0 0 0 0 0 0 0 -0 -0 -0 -0 0 0 -0 -0 0 -0 -0 0 0 0 0 0 0 0 0 0 0 0
0 0 0 0 0 0 0 0 0 0 0 0 0 0 0 0 0 0 0 0 0 0 -0 -0 -0 0 -0 -0 -0 -0 -0 0 0 0 0 0 0 0 0 -0 0 0 0 0
0 0 0 0 0 0 0 0 0 0 0 0 0 0 0 0 0 0 0 0 0 0 0 -0 -0 -0 -0 -0 0 -0 -0 0 0 0 0 0 0 0 0 -0 0 0 0 0
0 0 0 0 0 0 0 0 0 0 0 0 0 0 0 0 0 0 0 0 0 0 0 -0 0 0 -0 0 0 -0 0 0 0 0 0 0 0 -0 0 -0 0 0 0 0
0 0 0 0 0 0 0 0 0 0 0 0 0 0 0 0 0 0 0 0 0 0 0 0 -0 -0 -0 -0 0 0 0 0 0 0 0 0 0 0 0 0 0 0 0 0
0 0 0 0 0 0 0 0 0 0 0 0 0 0 0 0 0 0 0 0 0 0 -0 -0 0 0 -0 -0 -0 0 0 0 0 0 0 0 0 0 0 0 0 0 0 0
0 0 0 0 0 0 0 0 0 0 0 0 0 0 0 0 0 0 0 0 0 0 0 -0 -0 -0 -0 -0 -0 -0 0 0 0 0 0 0 0 0 0 0 0 0 0 0
0 0 0 0 0 0 0 0 0 0 0 0 0 0 0 0 0 0 0 0 0 0 0 -0 -0 0 0 0 0 0 0 0 0 0 0 0 0 0 -0 0 0 0 -0 0
0 0 0 0 0 0 0 0 0 0 0 0 0 0 0 0 0 0 0 0 0 0 0 0 0 -0 0 0 0 0 0 0 0 0 0 0 0 -0 -0 0 0 -0 -0 0
0 -0 0 0 0 0 0 0 0 0 0 0 0 0 0 0 0 0 0 0 0 0 0 -0 -0 0 -0 0 0 0 0 0 0 0 0 0 -0 -0 -0 0 0 0 0 0
0 -0 0 0 0 0 0 0 0 0 0 0 0 0 0 0 0 0 0 0 0 0 -0 0 -0 0 0 0 0 0 0 0 0 0 0 0 0 0 -0 0 0 0 0 -0
-0 -0 0 0 0 0 0 0 0 0 0 0 0 0 0 0 0 0 0 0 0 0 0 -0 -0 0 0 0 0 0 0 0 0 0 0 0 0 0 -0 0 0 0 0 0
-0 -0 0 0 0 0 0 0 0 0 0 0 0 0 0 0 0 0 0 0 0 0 0 0 0 0 0 0 0 0 0 0 0 0 0 0 0 0 0 0 0 -0 0 -0
-0 -0 0 0 0 0 0 0 0 0 0 0 0 0 0 0 0 0 0 0 0 0 0 0 0 0 0 0 0 0 0 0 0 0 0 0 0 0 0 0 0 0 0 -0
-0 -0 0 0 0 0 0 0 0 0 0 0 0 0 0 0 0 0 0 0 0 0 0 0 0 0 0 0 0 0 0 0 0 0 0 0 0 0 0 0 0 0 0 0
-0 -0 0 0 0 0 0 0 0 0 0 0 0 0 0 0 0 0 0 0 0 0 0 0 0 0 0 0 0 0 0 0 0 0 0 0 0 0 0 0 0 0 0 0
-0 -0 0 0 0 0 0 0 0 0 0 0 0 0 0 0 0 0 0 0 0 0 0 0 0 0 0 0 0 0 0 0 0 0 0 -0 -0 0 0 0 0 0 0 0
-0 -0 0 0 0 0 0 0 0 0 0 0 0 0 0 0 0 0 0 0 0 0 0 0 0 0 0 0 0 0 0 0 0 0 0 0 0 0 0 0 0 0 0 0
0 0 0 0 0 0 0 0 0 0 0 0 0 0 0 0 0 0 0 0 0 0 0 0 0 0 0 0 0 0 0 0 0 0 0 0 0 0 0 0 0 0 0 0
0 0 0 0 0 0 0 0 0 0 0 0 0 0 0 0 0 0 0 0 0 0 -0 -0 -0 0 0 -0 0 0 0 0 0 0 0 0 0 0 0 0 0 0 0 0
0 0 0 0 0 0 0 0 0 0 0 0 0 0 0 0 0 0 0 0 0 0 0 0 0 -0 0 -0 -0 0 0 0 0 0 0 0 0 0 0 0 0 0 0 0
0 0 0 0 0 0 0 0 0 0 0 0 0 0 0 0 0 0 0 0 0 0 0 0 0 0 0 0 0 0 0 0 0 0 0 0 0 0 0 0 0 0 0 0
0 0 0 0 0 0 0 0 0 0 0 0 0 0 0 0 0 0 0 0 0 0 0 0 0 0 0 0 0 0 0 0 0 0 0 0 0 0 0 0 0 0 0 0
0 0 0 0 0 0 0 0 0 0 0 0 0 0 0 0 0 0 0 0 0 0 0 0 0 0 0 0 0 0 0 0 0 0 0 0 0 0 0 0 0 0 0 0
0 0 0 0 0 0 0 0 0 0 0 0 0 0 0 0 0 0 0 0 0 0 0 0 0 0 0 0 0 0 0 0 0 0 0 0 0 0 0 0 0 0 0 0
0 0 0 0 0 0 0 0 0 0 0 0 0 0 0 0 0 0 0 0 0 0 0 0 0 0 0 0 0 0 0 0 0 0 0 0 0 0 0 0 0 0 0 0
Wind_Speed_500mb
20 14 10 14 19 24 24 16 6 14 19 9 7 2 5 10 9 7 7 6 7 7 6 6 6 10 15 44 41 33 11 11 14 14 14 14 4 7 2 5 4 2 4 4
22 15 10 14 18 21 25 19 6 9 18 5 7 10 7 5 7 8 9 8 1 2 4 8 7 10 23 32 26 33 18 10 17 19 8 16 12 9 4 8 6 5 3 0
24 16 11 12 17 19 21 9 6 7 12 8 5 4 7 8 9 11 9 15 10 5 5 4 10 18 14 52 23 55 26 8 16 15 13 9 11 11 3 10 3 7 6 7
26 18 12 11 14 15 14 8 3 2 6 5 3 2 3 5 7 7 7 8 2 6 8 8 4 12 26 25 27 36 17 8 20 24 13 11 9 18 27 12 8 9 12 11
29 20 13 11 9 11 9 5 2 1 7 8 7 2 6 5 8 5 9 5 14 13 6 9 17 17 18 9 21 29 21 10 17 9 17 14 9 35 24 22 10 10 14 12
31 22 14 12 7 9 4 3 4 3 1 3 6 4 6 8 16 9 6 13 14 10 11 20 27 29 32 25 17 16 15 17 14 11 25 20 8 18 14 6 24 10 16 10
34 25 18 12 5 8 8 7 6 2 7 3 7 3 6 10 9 10 22 29 2 13 38 50 34 15 19 18 17 10 14 18 6 10 16 13 10 12 5 21 26 25 23 21
37 28 22 13 7 10 9 10 7 4 4 10 11 8 6 14 15 7 13 12 13 30 25 10 13 9 8 8 8 2 6 8 9 6 7 8 10 19 16 14 14 29 21 20
39 30 24 14 10 12 11 12 12 8 2 9 7 2 2 2 4 9 7 14 20 14 6 8 6 4 6 10 8 3 3 6 3 7 6 6 6 29 46 15 5 32 32 24
40 33 25 16 14 14 14 13 13 10 7 7 5 2 3 2 2 4 9 14 10 13 6 6 2 6 7 6 4 9 5 5 3 7 4 7 15 49 33 9 11 42 39 31
41 34 25 18 16 18 18 14 15 13 7 13 8 8 5 4 3 2 10 7 7 8 8 5 5 3 5 5 5 3 2 4 4 3 6 10 51 19 13 14 28 29 28 22
42 34 25 19 16 16 18 17 15 14 14 8 9 12 7 8 7 3 7 5 7 7 4 2 3 6 7 4 6 5 6 2 4 6 4 11 27 12 30 13 12 18 18 22
43 33 26 20 17 17 16 16 13 12 10 11 8 5 4 7 9 8 3 3 8 6 11 3 3 2 1 4 5 7 3 12 3 1 6 13 36 32 33 24 27 27 28 35
42 35 27 19 16 12 11 13 10 10 6 3 6 9 4 8 12 9 8 10 10 16 6 4 2 3 1 3 5 4 4 14 8 3 6 7 31 39 30 33 40 42 41 45
44 35 26 19 15 12 9 11 10 11 7 3 4 6 9 8 7 7 7 8 10 8 4 1 4 4 4 6 4 4 8 5 5 4 11 4 10 23 29 38 41 36 39 42
43 35 27 19 16 13 7 5 10 12 11 3 3 4 5 9 8 7 8 9 7 4 4 4 5 2 3 1 2 7 9 9 8 7 9 7 14 21 25 32 33 33 34 36
43 36 27 19 16 15 7 3 2 8 7 4 4 4 6 8 8 2 1 2 3 4 4 3 3 3 7 3 3 7 12 10 6 0 5 7 10 15 24 27 29 27 31 32
44 36 28 20 16 15 13 11 8 8 6 5 4 7 3 9 5 6 3 6 4 2 3 4 6 7 5 3 4 8 10 2 6 4 4 16 21 20 20 22 22 19 29 30
48 35 20 12 10 9 9 12 12 12 8 4 5 7 7 9 5 5 6 4 3 2 2 4 5 4 4 8 3 3 14 3 1 11 19 19 20 18 18 19 22 24 27 23
44 29 13 10 9 11 12 6 4 6 6 9 9 9 2 7 8 4 1 2 3 3 4 8 4 6 4 5 4 3 5 6 14 21 20 18 19 17 16 18 20 22 21 23
40 18 10 15 22 13 5 3 3 3 5 9 6 13 4 7 4 5 1 5 2 5 6 6 5 6 7 6 3 2 5 11 12 19 19 20 18 19 17 18 19 20 20 21
37 20 24 21 8 5 6 3 3 3 8 8 8 6 4 7 5 2 3 5 5 4 5 6 5 7 14 4 6 12 11 13 17 19 18 19 18 16 12 13 15 17 19 21
38 11 12 10 3 8 11 11 8 4 12 18 12 6 7 6 5 11 5 6 6 4 6 7 8 14 8 12 23 26 22 20 24 26 24 20 13 11 10 14 14 16 18 20
11 14 6 9 5 10 9 9 8 7 4 28 23 10 1 3 6 2 8 3 4 7 6 9 5 4 11 26 34 31 26 29 29 25 20 13 10 9 11 13 17 18 18 22
9 10 8 9 5 4 11 11 17 13 35 29 15 11 2 6 7 4 5 8 5 10 9 6 13 19 30 38 38 30 32 28 21 17 11 8 9 11 11 12 15 17 19 20
4 6 6 3 2 4 14 21 14 35 40 14 6 7 6 4 5 5 10 9 10 7 6 15 23 32 40 42 38 35 28 20 13 10 8 7 6 7 10 14 13 14 17 19
6 4 11 16 5 4 14 21 22 41 26 5 8 5 12 7 4 5 8 9 6 10 29 33 33 36 38 37 33 27 20 16 14 10 8 5 5 7 12 9 11 14 17 22
Wind_Direction_500mb
220 233 276 311 332 340 340 347 354 328 336 14 54 93 222 316 307 313 300 233 267 253 313 310 286 306 297 344 336 335 309 311 294 288 239 259 59 42 27 147 168 210 264 286
218 234 269 312 336 346 350 330 296 337 356 71 335 313 298 268 312 321 325 295 40 175 302 321 268 298 287 327 340 341 332 309 320 337 56 25 36 325 7 79 83 240 217 53
215 232 266 312 334 345 352 351 5 14 53 86 150 341 283 310 274 263 277 294 315 359 282 219 293 310 315 321 346 343 345 328 355 332 307 288 298 348 14 84 5 319 40 10
213 228 256 303 327 353 358 26 56 326 305 332 357 62 277 291 305 248 303 312 245 291 310 320 217 302 322 341 1 351 7 292 338 299 313 311 323 356 36 52 9 44 358 39
213 222 248 284 330 353 351 353 136 213 278 300 318 270 261 271 313 297 313 248 303 295 263 229 307 319 339 315 335 342 342 309 327 293 335 343 6 21 14 34 48 71 22 49
212 219 235 269 332 347 342 346 274 279 347 10 67 252 297 324 347 310 307 354 317 293 273 296 281 277 283 287 311 331 325 337 333 302 321 306 24 356 355 21 42 7 41 339
211 216 227 252 313 321 315 297 256 205 271 174 206 255 286 291 310 275 302 312 270 305 311 303 283 255 260 270 279 250 305 322 294 291 323 37 299 353 5 62 45 29 29 20
210 212 228 244 280 296 302 283 245 243 274 232 283 251 261 318 316 265 265 297 292 307 317 346 352 345 39 323 72 124 234 301 314 345 316 295 5 17 4 0 35 22 360 12
207 211 227 243 269 290 288 264 249 256 310 256 268 305 267 224 302 322 276 318 326 334 333 44 67 290 252 323 354 71 232 258 327 347 357 358 10 325 321 297 50 7 357 345
206 211 226 241 265 282 272 259 248 250 258 274 231 274 240 224 245 252 299 329 337 359 20 38 19 286 202 2 34 342 353 10 39 318 332 313 353 319 317 43 314 330 337 353
205 213 226 239 265 276 255 257 249 242 253 284 270 228 262 261 224 207 324 333 360 9 39 81 287 352 283 350 239 312 189 9 326 319 356 353 356 357 52 319 319 331 349 19
205 214 226 239 264 255 232 243 258 258 245 269 271 276 221 229 229 287 326 333 13 358 44 3 23 337 340 345 335 346 1 45 302 10 330 334 357 332 345 341 321 14 42 85
204 212 222 235 249 238 230 248 261 269 271 275 250 227 201 222 223 233 294 33 359 1 335 271 231 286 53 334 319 304 23 13 275 23 15 360 21 35 32 48 69 80 92 102
201 209 217 234 233 229 220 248 264 244 276 248 219 207 196 212 218 223 213 271 321 317 309 265 176 193 271 287 300 300 312 330 330 301 23 299 24 33 45 69 79 82 85 87
200 205 212 227 218 216 229 252 253 232 249 271 280 256 237 222 223 221 241 274 291 308 264 199 244 302 348 300 319 295 356 329 14 26 325 359 340 19 56 75 78 83 86 85
197 201 208 219 209 216 225 240 242 231 240 293 356 237 205 211 235 247 256 274 292 268 273 272 276 298 329 23 235 294 328 323 303 278 339 79 56 62 75 80 78 76 75 74
193 201 210 212 200 219 209 231 263 198 223 244 295 277 186 212 224 186 265 234 229 240 286 280 308 243 352 109 208 320 331 328 331 184 113 68 86 86 78 71 67 64 68 71
189 200 208 205 198 213 240 233 236 189 219 250 104 276 224 193 169 179 196 182 165 21 310 302 357 314 5 292 246 326 325 254 46 146 126 134 117 96 79 72 71 81 78 76
189 198 200 186 196 206 233 207 214 216 237 259 184 154 236 170 160 172 173 173 169 239 136 31 340 321 234 222 250 37 25 28 73 103 124 128 116 96 83 77 81 83 80 72
187 180 165 185 182 173 149 148 177 196 223 228 231 184 194 179 169 186 153 138 132 114 261 337 73 264 241 189 181 230 3 82 128 132 138 132 106 89 95 98 89 71 55 39
169 169 161 149 151 148 166 166 89 330 283 222 219 200 160 178 105 201 120 183 333 74 260 111 321 293 192 183 317 166 110 127 126 133 124 116 108 107 102 88 67 48 30 17
169 166 132 141 166 138 96 257 336 116 236 204 169 182 167 148 148 149 10 122 33 228 339 75 295 245 166 225 195 157 126 119 124 119 115 113 111 104 82 55 40 27 24 24
152 154 145 146 156 48 157 204 282 293 199 180 159 156 178 147 163 94 87 62 232 313 41 230 229 160 203 177 165 158 145 138 136 133 132 127 118 89 57 42 39 41 36 34
165 163 171 169 231 244 188 185 174 168 199 161 142 119 267 133 70 17 94 221 75 30 6 245 253 181 179 160 155 155 143 137 136 133 124 111 87 65 57 44 41 40 33 34
176 168 210 208 239 204 175 169 138 136 149 148 128 102 167 350 79 38 99 31 278 199 226 224 177 154 152 150 149 150 146 140 135 126 118 104 75 57 44 44 41 34 33 33
211 201 115 149 129 205 182 171 160 156 156 152 116 103 53 302 130 78 216 122 227 252 223 152 150 148 148 149 150 147 146 140 137 126 114 92 79 56 48 48 42 40 35 23
214 210 215 188 263 204 161 166 166 162 157 172 123 108 212 111 32 280 199 206 224 158 143 145 145 147 146 145 146 147 146 147 143 136 127 104 78 68 53 50 47 37 22 15
Wind_Speed_850mb
20 14 10 14 19 24 24 16 6 14 19 9 7 2 5 10 9 7 7 6 7 7 6 6 6 10 15 44 41 33 11 11 14 14 14 14 4 7 2 5 4 2 4 4
22 15 10 14 18 21 25 19 6 9 18 5 7 10 7 5 7 8 9 8 1 2 4 8 7 10 23 32 26 33 18 10 17 19 8 16 12 9 4 8 6 5 3 0
24 16 11 12 17 19 21 9 6 7 12 8 5 4 7 8 9 11 9 15 10 5 5 4 10 18 14 52 23 55 26 8 16 15 13 9 11 11 3 10 3 7 6 7
26 18 12 11 14 15 14 8 3 2 6 5 3 2 3 5 7 7 7 8 2 6 8 8 4 12 26 25 27 36 17 8 20 24 13 11 9 18 27 12 8 9 12 11
29 20 13 11 9 11 9 5 2 1 7 8 7 2 6 5 8 5 9 5 14 13 6 9 17 17 18 9 21 29 21 10 17 9 17 14 9 35 24 22 10 10 14 12
31 22 14 12 7 9 4 3 4 3 1 3 6 4 6 8 16 9 6 13 14 10 11 20 27 29 32 25 17 16 15 17 14 11 25 20 8 18 14 6 24 10 16 10
34 25 18 12 5 8 8 7 6 2 7 3 7 3 6 10 9 10 22 29 2 13 38 50 34 15 19 18 17 10 14 18 6 10 16 13 10 12 5 21 26 25 23 21
37 28 22 13 7 10 9 10 7 4 4 10 11 8 6 14 15 7 13 12 13 30 25 10 13 9 8 8 8 2 6 8 9 6 7 8 10 19 16 14 14 29 21 20
39 30 24 14 10 12 11 12 12 8 2 9 7 2 2 2 4 9 7 14 20 14 6 8 6 4 6 10 8 3 3 6 3 7 6 6 6 29 46 15 5 32 32 24
40 33 25 16 14 14 14 13 13 10 7 7 5 2 3 2 2 4 9 14 10 13 6 6 2 6 7 6 4 9 5 5 3 7 4 7 15 49 33 9 11 42 39 31
41 34 25 18 16 18 18 14 15 13 7 13 8 8 5 4 3 2 10 7 7 8 8 5 5 3 5 5 5 3 2 4 4 3 6 10 51 19 13 14 28 29 28 22
42 34 25 19 16 16 18 17 15 14 14 8 9 12 7 8 7 3 7 5 7 7 4 2 3 6 7 4 6 5 6 2 4 6 4 11 27 12 30 13 12 18 18 22
43 33 26 20 17 17 16 16 13 12 10 11 8 5 4 7 9 8 3 3 8 6 11 3 3 2 1 4 5 7 3 12 3 1 6 13 36 32 33 24 27 27 28 35
42 35 27 19 16 12 11 13 10 10 6 3 6 9 4 8 12 9 8 10 10 16 6 4 2 3 1 3 5 4 4 14 8 3 6 7 31 39 30 33 40 42 41 45
44 35 26 19 15 12 9 11 10 11 7 3 4 6 9 8 7 7 7 8 10 8 4 1 4 4 4 6 4 4 8 5 5 4 11 4 10 23 29 38 41 36 39 42
43 35 27 19 16 13 7 5 10 12 11 3 3 4 5 9 8 7 8 9 7 4 4 4 5 2 3 1 2 7 9 9 8 7 9 7 14 21 25 32 33 33 34 36
43 36 27 19 16 15 7 3 2 8 7 4 4 4 6 8 8 2 1 2 3 4 4 3 3 3 7 3 3 7 12 10 6 0 5 7 10 15 24 27 29 27 31 32
44 36 28 20 16 15 13 11 8 8 6 5 4 7 3 9 5 6 3 6 4 2 3 4 6 7 5 3 4 8 10 2 6 4 4 16 21 20 20 22 22 19 29 30
48 35 20 12 10 9 9 12 12 12 8 4 5 7 7 9 5 5 6 4 3 2 2 4 5 4 4 8 3 3 14 3 1 11 19 19 20 18 18 19 22 24 27 23
44 29 13 10 9 11 12 6 4 6 6 9 9 9 2 7 8 4 1 2 3 3 4 8 4 6 4 5 4 3 5 6 14 21 20 18 19 17 16 18 20 22 21 23
40 18 10 15 22 13 5 3 3 3 5 9 6 13 4 7 4 5 1 5 2 5 6 6 5 6 7 6 3 2 5 11 12 19 19 20 18 19 17 18 19 20 20 21
37 20 24 21 8 5 6 3 3 3 8 8 8 6 4 7 5 2 3 5 5 4 5 6 5 7 14 4 6 12 11 13 17 19 18 19 18 16 12 13 15 17 19 21
38 11 12 10 3 8 11 11 8 4 12 18 12 6 7 6 5 11 5 6 6 4 6 7 8 14 8 12 23 26 22 20 24 26 24 20 13 11 10 14 14 16 18 20
11 14 6 9 5 10 9 9 8 7 4 28 23 10 1 3 6 2 8 3 4 7 6 9 5 4 11 26 34 31 26 29 29 25 20 13 10 9 11 13 17 18 18 22
9 10 8 9 5 4 11 11 17 13 35 29 15 11 2 6 7 4 5 8 5 10 9 6 13 19 30 38 38 30 32 28 21 17 11 8 9 11 11 12 15 17 19 20
4 6 6 3 2 4 14 21 14 35 40 14 6 7 6 4 5 5 10 9 10 7 6 15 23 32 40 42 38 35 28 20 13 10 8 7 6 7 10 14 13 14 17 19
6 4 11 16 5 4 14 21 22 41 26 5 8 5 12 7 4 5 8 9 6 10 29 33 33 36 38 37 33 27 20 16 14 10 8 5 5 7 12 9 11 14 17 22
Wind_Direction_850mb
220 233 276 311 332 340 340 347 354 328 336 14 54 93 222 316 307 313 300 233 267 253 313 310 286 306 297 344 336 335 309 311 294 288 239 259 59 42 27 147 168 210 264 286
218 234 269 312 336 346 350 330 296 337 356 71 335 313 298 268 312 321 325 295 40 175 302 321 268 298 287 327 340 341 332 309 320 337 56 25 36 325 7 79 83 240 217 53
215 232 266 312 334 345 352 351 5 14 53 86 150 341 283 310 274 263 277 294 315 359 282 219 293 310 315 321 346 343 345 328 355 332 307 288 298 348 14 84 5 319 40 10
213 228 256 303 327 353 358 26 56 326 305 332 357 62 277 291 305 248 303 312 245 291 310 320 217 302 322 341 1 351 7 292 338 299 313 311 323 356 36 52 9 44 358 39
213 222 248 284 330 353 351 353 136 213 278 300 318 270 261 271 313 297 313 248 303 295 263 229 307 319 339 315 335 342 342 309 327 293 335 343 6 21 14 34 48 71 22 49
212 219 235 269 332 347 342 346 274 279 347 10 67 252 297 324 347 310 307 354 317 293 273 296 281 277 283 287 311 331 325 337 333 302 321 306 24 356 355 21 42 7 41 339
211 216 227 252 313 321 315 297 256 205 271 174 206 255 286 291 310 275 302 312 270 305 311 303 283 255 260 270 279 250 305 322 294 291 323 37 299 353 5 62 45 29 29 20
210 212 228 244 280 296 302 283 245 243 274 232 283 251 261 318 316 265 265 297 292 307 317 346 352 345 39 323 72 124 234 301 314 345 316 295 5 17 4 0 35 22 360 12
207 211 227 243 269 290 288 264 249 256 310 256 268 305 267 224 302 322 276 318 326 334 333 44 67 290 252 323 354 71 232 258 327 347 357 358 10 325 321 297 50 7 357 345
206 211 226 241 265 282 272 259 248 250 258 274 231 274 240 224 245 252 299 329 337 359 20 38 19 286 202 2 34 342 353 10 39 318 332 313 353 319 317 43 314 330 337 353
205 213 226 239 265 276 255 257 249 242 253 284 270 228 262 261 224 207 324 333 360 9 39 81 287 352 283 350 239 312 189 9 326 319 356 353 356 357 52 319 319 331 349 19
205 214 226 239 264 255 232 243 258 258 245 269 271 276 221 229 229 287 326 333 13 358 44 3 23 337 340 345 335 346 1 45 302 10 330 334 357 332 345 341 321 14 42 85
204 212 222 235 249 238 230 248 261 269 271 275 250 227 201 222 223 233 294 33 359 1 335 271 231 286 53 334 319 304 23 13 275 23 15 360 21 35 32 48 69 80 92 102
201 209 217 234 233 229 220 248 264 244 276 248 219 207 196 212 218 223 213 271 321 317 309 265 176 193 271 287 300 300 312 330 330 301 23 299 24 33 45 69 79 82 85 87
200 205 212 227 218 216 229 252 253 232 249 271 280 256 237 222 223 221 241 274 291 308 264 199 244 302 348 300 319 295 356 329 14 26 325 359 340 19 56 75 78 83 86 85
197 201 208 219 209 216 225 240 242 231 240 293 356 237 205 211 235 247 256 274 292 268 273 272 276 298 329 23 235 294 328 323 303 278 339 79 56 62 75 80 78 76 75 74
193 201 210 212 200 219 209 231 263 198 223 244 295 277 186 212 224 186 265 234 229 240 286 280 308 243 352 109 208 320 331 328 331 184 113 68 86 86 78 71 67 64 68 71
189 200 208 205 198 213 240 233 236 189 219 250 104 276 224 193 169 179 196 182 165 21 310 302 357 314 5 292 246 326 325 254 46 146 126 134 117 96 79 72 71 81 78 76
189 198 200 186 196 206 233 207 214 216 237 259 184 154 236 170 160 172 173 173 169 239 136 31 340 321 234 222 250 37 25 28 73 103 124 128 116 96 83 77 81 83 80 72
187 180 165 185 182 173 149 148 177 196 223 228 231 184 194 179 169 186 153 138 132 114 261 337 73 264 241 189 181 230 3 82 128 132 138 132 106 89 95 98 89 71 55 39
169 169 161 149 151 148 166 166 89 330 283 222 219 200 160 178 105 201 120 183 333 74 260 111 321 293 192 183 317 166 110 127 126 133 124 116 108 107 102 88 67 48 30 17
169 166 132 141 166 138 96 257 336 116 236 204 169 182 167 148 148 149 10 122 33 228 339 75 295 245 166 225 195 157 126 119 124 119 115 113 111 104 82 55 40 27 24 24
152 154 145 146 156 48 157 204 282 293 199 180 159 156 178 147 163 94 87 62 232 313 41 230 229 160 203 177 165 158 145 138 136 133 132 127 118 89 57 42 39 41 36 34
165 163 171 169 231 244 188 185 174 168 199 161 142 119 267 133 70 17 94 221 75 30 6 245 253 181 179 160 155 155 143 137 136 133 124 111 87 65 57 44 41 40 33 34
176 168 210 208 239 204 175 169 138 136 149 148 128 102 167 350 79 38 99 31 278 199 226 224 177 154 152 150 149 150 146 140 135 126 118 104 75 57 44 44 41 34 33 33
211 201 115 149 129 205 182 171 160 156 156 152 116 103 53 302 130 78 216 122 227 252 223 152 150 148 148 149 150 147 146 140 137 126 114 92 79 56 48 48 42 40 35 23
214 210 215 188 263 204 161 166 166 162 157 172 123 108 212 111 32 280 199 206 224 158 143 145 145 147 146 145 146 147 146 147 143 136 127 104 78 68 53 50 47 37 22 15